Location: Unspecified
(49.2170°N, 0.0000°E)
Time: 22:56:58
(UTC+00:00)

Courier 1B Rocket - Pass Details

Date: 30 January 2021
Orbit: 920 x 1202 km, 28.2° (Epoch: 08 March)

Event Time Altitude Azimuth Distance (km) Brightness Sun altitude
Rises 07:07:29 0° 234° (SW) 3,639 7.7 -4.7°
Reaches altitude 10° 07:13:03 10° 196° (SSW) 2,765 7.5 -3.9°
Maximum altitude 07:14:06 10° 186° (S) 2,752 7.6 -3.7°
Drops below altitude 10° 07:15:11 10° 177° (S) 2,797 7.8 -3.6°
Sets 07:21:01 0° 140° (SE) 3,841 9.5 -2.7°
